星链-1043 (STARLINK-1043 )

导读 | 星芒AI

STARLINK-1043 是 SpaceX Starlink 项目中的一颗低轨通信卫星,属于第 10 批发射的 Starlink 卫星群。该卫星于 2021 年 5 月 28 日由猎鹰 9 号火箭从美国卡纳维拉尔角发射升空。它运行在约 550 公里的轨道高度,旨在为全球提供高速互联网服务。STARLINK-1043 采用先进的相控阵天线和激光通信技术,支持低延迟、高带宽的连接,是 SpaceX 构建全球卫星互联网网络的重要组成部分。

基本信息
目录编号:
44748
目录名称:
STARLINK-1043
国际标识:
2019-074AM
轨道中心:
EARTH
卫星名称:
星链-1043
卫星全名:
星链-1043 (STARLINK-1043 )
卫星状态:
在轨 (已飞行2224 天)
发射日期:
2019-11-11 UTC
国别 :
美国 (US)
星等 :
--
轨道信息
数据来源 国际轨道数据
星历时间: 2025-12-13T08:48:54+0800
9小时前
查看轨道信息
半长轴: 6812.419km
偏心率: 0.0002616
轨道倾角: 53.054°
近地点辐角 111.365°
升交点赤经 249.966°
平近点角 248.764°
近地点: 432.501km
远地点: 436.067km
周期: 93.263分钟
每日圈数: 15.440125
详细信息
固有亮度:
5
最大亮度:
2.5
卫星平台:
Starlink V1.0
覆盖范围:
全球
运营商:
太空探索技术公司
运营商所在国:
美国
制造商(研发单位):
太空探索技术公司
制造商所在国:
美国
使用方式:
暂无
卫星简介
星链(Starlink)计划是由太空探索技术公司(SpaceX)提出的一个巨型低轨卫星互联网星座项目,计划在2019年至2024年间在太空搭建由约1.2万颗卫星组成的“星链”网络,其中1584颗将部署在地球上空550千米处的近地轨道,并从2020年开始工作。该卫星仍在工作。
2D轨道图
3D轨道图
轨道高度分析图
轨道倾角分析图
轨道综合分析图
查看轨道综合分析图